Barrow, AK

3:57 AM AKDT on July 29, 2017 (GMT -0800)
Wiley Post-Will Rogers Memorial

Weather History for PABR - April, 2014

Change the Weather History Date:

Tuesday, April 22, 2014

  Actual Average Record
Temperature  
Mean Temperature 14 °F 6 °F  
Max Temperature 18 °F 13 °F 36 °F (1931)
Min Temperature 9 °F 0 °F -30 °F (1924)
Degree Days  
Heating Degree Days 51 59  
Month to date heating degree days 1432 1450  
Since 1 July heating degree days 15256 16714  
Cooling Degree Days 0 0  
Month to date cooling degree days 0 0  
Year to date cooling degree days 0 0  
Moisture  
Dew Point 12 °F    
Average Humidity 0    
Maximum Humidity 0    
Minimum Humidity 0    
Precipitation  
Precipitation 0.10 in 0.01 in 0.19 in (2015)
Month to date precipitation 0.32 0.12  
Year to date precipitation 0.74 0.48  
Snow  
Snow 0.80 in 0.10 in 1.90 in (2015)
Month to date snowfall 2.1 2.3  
Since 1 July snowfall 46.5 33.4  
Snow Depth 8.00 in    
Sea Level Pressure  
Sea Level Pressure 29.98 in    
Wind  
Wind Speed 11 mph (East)    
Max Wind Speed 18 mph    
Max Gust Speed 21 mph    
Visibility 4 miles    
Events Fog , Snow    
T = Trace of Precipitation, MM = Missing Value Source: NWS Daily Summary

Daily Weather History Graph

Daily Weather History Graph

Search for Another Location

Airport or City:

Trip Planner

Search our weather history database for the weather conditions in past years. The results will help you decide how hot, cold, wet, or windy it might be!

Date:

Astronomy

Apr. 22, 2014 Rise Set
Actual Time 5:31 AM AKDT 11:24 PM AKDT
Civil Twilight 3:17 AM AKDT 1:56 AM AKDT
Nautical Twilight Sun does not set Sun does not set
Astronomical Twilight Sun does not set Sun does not set
Moon 5:58 AM AKDT (4/22) 12:14 PM AKDT (4/22)
Length of Visible Light 22h 39m
Length of Day
17h 52m
Last Quarter, 44% of the Moon is Illuminated
Apr 22
Last Quarter
Apr 28
New
May 6
First Quarter
May 14
Full
May 21
Last Quarter

Hourly Weather History & Observations

Time (AKDT) Temp. Windchill Dew Point Humidity Pressure Visibility Wind Dir Wind Speed Gust Speed Precip Events Conditions
12:45 AM 12.9 °F -3.4 °F 10.0 °F 88% 30.07 in 9.0 mi East 16.1 mph - 0.01 in Snow Light Snow
12:53 AM 12.9 °F -2.8 °F 10.0 °F 88% 30.08 in 9.0 mi East 15.0 mph - 0.01 in Snow Light Snow
1:53 AM 12.0 °F -2.7 °F 9.0 °F 88% 30.08 in 9.0 mi East 12.7 mph - 0.00 in Snow Light Snow
2:53 AM 10.9 °F -3.4 °F 8.1 °F 88% 30.06 in 9.0 mi East 11.5 mph - 0.00 in   Overcast
3:05 AM 10.9 °F -4.1 °F 8.1 °F 88% 30.06 in 10.0 mi East 12.7 mph - 0.02 in   Overcast
3:53 AM 12.0 °F -4.5 °F 9.0 °F 88% 30.05 in 10.0 mi East 16.1 mph - 0.02 in   Overcast
4:53 AM 10.0 °F -4.5 °F 8.1 °F 92% 30.04 in 6.0 mi East 11.5 mph - 0.00 in Snow Light Snow
5:53 AM 10.9 °F -4.7 °F 8.1 °F 88% 30.03 in 4.0 mi East 13.8 mph - 0.05 in Snow Light Snow
6:53 AM 10.0 °F -2.9 °F 7.0 °F 87% 30.02 in 3.0 mi East 9.2 mph - 0.00 in Snow Light Snow
7:53 AM 10.0 °F -5.2 °F 7.0 °F 87% 30.01 in 3.0 mi East 12.7 mph - 0.04 in Snow Light Snow
8:53 AM 10.0 °F -6.5 °F 7.0 °F 87% 30.01 in 5.0 mi East 15.0 mph - 0.00 in Snow Light Snow
9:53 AM 10.9 °F -6.5 °F 8.1 °F 88% 29.99 in 7.0 mi East 17.3 mph - 0.00 in   Mostly Cloudy
10:04 AM 10.9 °F -7.0 °F 7.0 °F 84% 29.99 in 10.0 mi East 18.4 mph - N/A   Overcast
10:53 AM 10.9 °F -5.9 °F 7.0 °F 84% 29.99 in 10.0 mi East 16.1 mph - 0.01 in   Scattered Clouds
11:53 AM 12.0 °F -3.4 °F 8.1 °F 84% 29.99 in 10.0 mi East 13.8 mph - N/A   Scattered Clouds
12:53 PM 12.9 °F -2.2 °F 8.1 °F 81% 29.99 in 10.0 mi East 13.8 mph - N/A   Scattered Clouds
1:53 PM 12.9 °F -1.6 °F 9.0 °F 84% 29.99 in 10.0 mi East 12.7 mph - N/A   Scattered Clouds
2:53 PM 12.9 °F -1.6 °F 8.1 °F 81% 29.98 in 10.0 mi East 12.7 mph - N/A   Scattered Clouds
3:53 PM 12.9 °F -0.9 °F 9.0 °F 84% 29.98 in 10.0 mi East 11.5 mph - N/A   Mostly Cloudy
4:48 PM 14.0 °F -0.8 °F 10.4 °F 86% 29.96 in 2.0 mi East 13.8 mph - 0.00 in Snow Light Snow
4:53 PM 14.0 °F -0.8 °F 10.0 °F 84% 29.97 in 1.0 mi East 13.8 mph - 0.00 in Snow Light Snow
5:02 PM 14.0 °F -0.2 °F 10.9 °F 88% 29.96 in 0.8 mi East 12.7 mph - 0.01 in Snow Light Snow
5:09 PM 15.1 °F -0.1 °F 10.9 °F 84% 29.96 in 0.5 mi East 15.0 mph - 0.02 in Fog , Snow Light Snow
5:16 PM 15.1 °F -0.1 °F 10.9 °F 84% 29.95 in 0.8 mi ENE 15.0 mph - 0.02 in Snow Light Snow
5:24 PM 15.1 °F -0.1 °F 12.0 °F 88% 29.95 in 1.5 mi ENE 15.0 mph - 0.03 in Snow Light Snow
5:31 PM 15.1 °F 0.5 °F 12.0 °F 88% 29.95 in 3.0 mi ENE 13.8 mph - 0.03 in Snow Light Snow
5:41 PM 15.1 °F -0.1 °F 12.0 °F 88% 29.95 in 6.0 mi ENE 15.0 mph - 0.03 in Snow Light Snow
5:53 PM 15.1 °F 1.1 °F 12.0 °F 88% 29.96 in 5.0 mi East 12.7 mph - 0.04 in Snow Light Snow
6:14 PM 16.0 °F 2.3 °F 12.0 °F 84% 29.96 in 4.0 mi East 12.7 mph - 0.00 in Snow Light Snow
6:21 PM 16.0 °F 4.4 °F 12.9 °F 88% 29.96 in 4.0 mi East 9.2 mph - 0.01 in Snow Light Snow
6:53 PM 16.0 °F 5.3 °F 12.0 °F 84% 29.98 in 1.8 mi ESE 8.1 mph - 0.00 in Snow Light Snow
7:00 PM 16.0 °F 5.3 °F 12.9 °F 88% 29.97 in 2.0 mi ESE 8.1 mph - 0.00 in Snow Light Snow
7:08 PM 16.0 °F 5.3 °F 12.9 °F 88% 29.96 in 6.0 mi ESE 8.1 mph - 0.00 in Snow Light Snow
7:53 PM 16.0 °F 4.4 °F 12.9 °F 88% 29.97 in 10.0 mi East 9.2 mph - 0.00 in   Overcast
8:24 PM 17.1 °F 6.6 °F 12.9 °F 84% 29.97 in 1.8 mi East 8.1 mph - N/A Snow Light Snow
8:44 PM 17.1 °F 6.6 °F 14.0 °F 88% 29.96 in 2.0 mi East 8.1 mph - 0.00 in Snow Light Snow
8:53 PM 17.1 °F 6.6 °F 14.0 °F 88% 29.97 in 2.0 mi East 8.1 mph - 0.00 in Snow Light Snow
9:03 PM 17.1 °F 6.6 °F 14.0 °F 88% 29.96 in 3.0 mi East 8.1 mph - 0.00 in Snow Light Snow
9:08 PM 17.1 °F 6.6 °F 14.0 °F 88% 29.96 in 2.5 mi East 8.1 mph - 0.00 in Snow Light Snow
9:22 PM 17.1 °F 6.6 °F 14.0 °F 88% 29.96 in 1.0 mi East 8.1 mph - 0.00 in Snow Light Snow
9:26 PM 17.1 °F 7.6 °F 14.0 °F 88% 29.96 in 0.8 mi East 6.9 mph - 0.00 in Snow Light Snow
9:42 PM 17.1 °F 6.6 °F 14.0 °F 88% 29.96 in 0.5 mi East 8.1 mph - 0.01 in Fog , Snow Light Snow
9:50 PM 17.6 °F 7.3 °F 15.8 °F 93% 29.96 in 0.8 mi East 8.1 mph - 0.01 in Snow Light Snow
9:53 PM 17.1 °F 6.6 °F 15.1 °F 92% 29.97 in 0.8 mi East 8.1 mph - 0.01 in Snow Light Snow
10:03 PM 17.1 °F 6.6 °F 15.1 °F 92% 29.96 in 1.0 mi East 8.1 mph - 0.01 in Snow Light Snow
10:11 PM 17.1 °F 6.6 °F 15.1 °F 92% 29.96 in 0.8 mi East 8.1 mph - 0.00 in Snow Light Snow
10:31 PM 18.0 °F 8.7 °F 15.1 °F 88% 29.96 in 0.5 mi East 6.9 mph - 0.00 in Fog , Snow Snow
10:53 PM 18.0 °F 8.7 °F 16.0 °F 92% 29.97 in 0.8 mi ENE 6.9 mph - 0.00 in Snow Light Snow
11:03 PM 18.0 °F 8.7 °F 15.1 °F 88% 29.96 in 1.0 mi ENE 6.9 mph - 0.00 in Snow Light Snow
11:21 PM 18.0 °F 8.7 °F 15.1 °F 88% 29.96 in 0.8 mi ENE 6.9 mph - 0.01 in Snow Light Snow
11:30 PM 18.0 °F 8.7 °F 15.1 °F 88% 29.96 in 1.2 mi ENE 6.9 mph - 0.01 in Snow Light Snow
11:42 PM 18.0 °F 9.8 °F 16.0 °F 92% 29.96 in 2.0 mi ENE 5.8 mph - 0.01 in Snow Light Snow
11:53 PM 18.0 °F 9.8 °F 16.0 °F 92% 29.97 in 2.0 mi ENE 5.8 mph - 0.01 in Snow Light Snow